Location: Los Ranchitos
(37.9930°N, 122.5425°W)
Time: 08:18:58
(UTC+00:00)

USA 238 - Pass Details

Date: 21 September 2020
Orbit: 1006 x 1206 km, 63.4° (Epoch: 28 October)

Event Time Altitude Azimuth Distance (km) Brightness Sun altitude
Rises 04:53:43 0° 322° (NW) 3,986 7.6 -31.9°
Reaches altitude 10° 04:56:25 10° 319° (NW) 3,050 6.9 -32.3°
Maximum altitude 05:03:31 55° 244° (WSW) 1,398 4.3 -33.5°
Enters shadow 05:04:19 52° 221° (SW) 1,434 4.3 -33.7°
